sat.trackr.live / text

‹ back to catalog

ELECTRON KICK STAGE R/B

NORAD 69178 · 2026-112B

ROCKET_BODY UNKNOWN UNKNOWN

§ Identity

Operator
Country
US
Launch date
2026-05-22
Launch site
RLLB
Launch vehicle
Mass (kg)
RCS (m²)

External: N2YO · Heavens-Above · Gunter

§ Orbital elements

Epoch: 2026-05-22T19:42:22.048992Z

Period
95.85 min
Inclination
44.9111°
Eccentricity
0.0027869
Mean motion
15.02347412 rev/d
Perigee alt
540.3 km
Apogee alt
579.0 km
Semi-major
6,937.8 km
B*
3.0623e-5
RAAN
325.6435°
Arg perigee
269.2056°
Mean anomaly
90.5623°
Rev number
6

§ Raw data

ELECTRON KICK STAGE R/B1 69178U 26112B   26142.82108853  .00000177  00000+0  30623-4 0  99952 69178  44.9111 325.6435 0027869 269.2056  90.5623 15.02347412    63

JSON: /api/v1/satellites/69178 · /tle

For live sub-satellite position, see the globe view (requires WebGL).

§ Visibility from observer

Set your observer location to see the next 7 days of passes ≥ 10°. The values pass through the URL so the page stays shareable.

No JS? Fill the form by hand. The geolocation button needs JavaScript.